PDT,Max TemperatureF,Mean TemperatureF,Min TemperatureF,Max Dew PointF,MeanDew PointF,Min DewpointF,Max Humidity, Mean Humidity, Min Humidity, Max Sea Level PressureIn, Mean Sea Level PressureIn, Min Sea Level PressureIn, Max VisibilityMiles, Mean VisibilityMiles, Min VisibilityMiles, Max Wind SpeedMPH, Mean Wind SpeedMPH, Max Gust SpeedMPH,PrecipitationIn, CloudCover, Events, WindDirDegrees
2013-3-1,81,63,45,31,22,16,38,24,9,30.33,30.25,30.17,10,10,10,9,6,,0.00,0,,251
2013-3-2,84,66,48,37,29,23,44,28,13,30.24,30.13,30.03,10,10,9,8,3,,0.00,0,,258
2013-3-3,84,70,57,35,28,22,35,23,10,30.01,29.93,29.85,10,10,10,24,8,33,0.00,0,,233
2013-3-4,80,68,55,43,38,35,53,35,20,30.00,29.95,29.90,10,10,10,15,8,,0.00,0,,252
2013-3-5,80,66,53,46,41,37,57,42,24,30.05,29.97,29.90,10,10,10,12,3,,0.00,0,,174
2013-3-6,78,66,54,41,38,32,55,38,19,30.02,29.93,29.84,10,10,10,18,10,28,0.00,0,,282
2013-3-7,73,63,53,43,40,37,59,42,29,29.93,29.88,29.81,10,10,10,17,7,28,0.00,1,,288
2013-3-8,63,56,50,47,39,33,86,55,33,29.98,29.85,29.77,10,10,10,30,13,41,0.03,2,Rain,262
2013-3-9,70,60,50,40,38,36,66,47,30,30.11,30.03,29.96,10,10,10,24,14,31,0.00,1,,257
2013-3-10,75,62,48,38,28,17,64,32,11,30.22,30.15,30.09,10,10,10,17,7,24,0.00,0,,304
2013-3-11,82,63,45,35,27,20,46,28,12,30.16,30.08,29.97,10,10,10,9,5,,0.00,0,,278
2013-3-12,88,68,48,38,30,23,50,29,10,30.07,30.01,29.96,10,10,10,8,4,,0.00,0,,268
2013-3-13,91,72,52,42,33,27,45,28,10,30.09,30.02,29.97,10,10,10,8,5,,0.00,0,,278
2013-3-14,95,74,55,45,36,31,46,28,11,30.05,29.98,29.91,10,10,10,8,5,,0.00,0,,264
2013-3-15,96,77,59,49,39,29,44,28,12,29.93,29.86,29.78,10,10,10,12,6,,0.00,0,,229
2013-3-16,93,76,60,42,34,26,46,24,9,29.82,29.75,29.68,10,10,10,15,5,,0.00,0,,251
2013-3-17,91,76,61,45,33,18,44,24,7,29.87,29.79,29.72,10,10,10,14,7,,0.00,0,,276
2013-3-18,88,72,57,54,39,31,72,36,14,29.94,29.87,29.82,10,10,10,10,5,,0.00,0,,183
2013-3-19,91,74,59,51,42,29,75,36,11,29.97,29.92,29.86,10,10,10,13,5,,0.00,0,,287
2013-3-20,91,76,61,48,37,22,62,28,12,29.96,29.89,29.81,10,10,10,17,6,28,0.00,0,,249
2013-3-21,86,75,64,48,39,31,45,30,15,29.81,29.73,29.65,10,10,10,17,9,25,0.00,0,,273
2013-3-22,87,74,60,45,35,16,50,30,7,29.76,29.70,29.64,10,10,10,15,10,,0.00,0,,276
2013-3-23,81,68,57,49,24,5,69,26,6,29.99,29.90,29.77,10,10,10,18,7,16,0.00,0,,64
2013-3-24,82,64,46,39,27,14,50,29,9,29.99,29.92,29.85,10,10,10,7,3,,0.00,0,,264
2013-3-25,87,67,48,39,31,20,57,29,9,29.95,29.88,29.81,10,10,10,10,3,,0.00,0,,174
2013-3-26,89,74,59,40,33,24,49,25,11,29.86,29.80,29.73,10,10,10,18,4,26,0.00,0,,178
2013-3-27,89,76,62,38,32,26,35,23,12,29.91,29.84,29.79,10,10,10,18,9,23,0.00,0,,264
2013-3-28,87,74,63,46,39,35,45,29,17,29.99,29.93,29.89,10,10,10,17,7,24,0.00,0,,180
2013-3-29,87,72,57,56,46,36,81,41,18,30.04,29.97,29.93,10,10,10,9,5,,0.00,0,,149
2013-3-30,91,80,68,48,39,23,47,29,9,29.99,29.94,29.87,10,10,10,15,5,,0.00,0,,236
2013-3-31,84,75,64,47,42,31,42,32,24,29.98,29.93,29.88,10,10,10,23,15,32,0.00,0,,272